Regional Weather Roundup
Issued by NWS

Home | Current Version | Previous Version | Graphics & Text | Print | Product List | Glossary On
Versions: 1 2 3 4 5 6 7 8 9 10 11 12 13 14 15 16 17 18 19 20 21 22 23 24 25 26 27
000
ASUS45 KBOU 261307
RWRCO

WEATHER ROUNDUP FOR COLORADO
NATIONAL WEATHER SERVICE DENVER/BOULDER CO
700 AM MDT FRI MAY 26 2017

NOTE: "FAIR" INDICATES FEW OR NO CLOUDS BELOW 12000 FEET WITH NO
SIGNIFICANT WEATHER AND/OR OBSTRUCTIONS TO VISIBILITY.

COZ001>005-013-030-031-261400-
...NORTHWEST COLORADO...

CITY           SKY/WX    TMP DP  RH WIND       PRES   REMARKS
CRAIG          PTSUNNY   44  37  76 NE8       29.93R
HAYDEN         FAIR      41  34  75 E9        29.93S
MEEKER         FAIR      50  41  71 NE5       29.89F
RABBIT EARS PA FOG       32  32 100 S8        30.10R VSB 1   WCI  25
STEAMBOAT SPGS PTSUNNY   37  35  92 CALM      29.95F
WALDEN           N/A     37  34  87 SE3       30.02S
$$

COZ006>008-011-261400-
...WEST CENTRAL VALLEYS...

CITY           SKY/WX    TMP DP  RH WIND       PRES   REMARKS
GRAND JUNCTION FAIR      58  43  57 SE22      29.84S
MONTROSE       FAIR      50  40  68 SE8       29.96R
EAGLE          SUNNY     43  39  87 CALM      30.01S
RIFLE          FAIR      49  42  77 S3        29.91S
DELTA          FAIR      55  44  66 NE7       29.93R
NUCLA          FAIR      55  27  33 CALM      29.96R
$$

COZ017>023-064>068-261400-
...SOUTHWEST COLORADO...

CITY           SKY/WX    TMP DP  RH WIND       PRES   REMARKS
DURANGO          N/A    N/A N/A N/A MISG      30.04R
CORTEZ         FAIR      48  28  46 NE8       29.97R
PAGOSA SPRINGS FAIR      46  29  51 CALM      30.09R
TELLURIDE      CLOUDY    48  24  39 SE5       30.12R
WOLF CREEK PAS FAIR      32  18  55 S15G23    30.29R WCI  22
$$

COZ009-010-012-014-032>034-037-058>063-261400-
...CENTRAL COLORADO...

CITY           SKY/WX    TMP DP  RH WIND       PRES   REMARKS
ASPEN          FAIR      42  39  89 SE5       30.01F
BUENA VISTA    FAIR      41  36  81 CALM      30.09R
COPPER MTN     CLOUDY    36  27  69 W24G33    30.19S HAZE
BERTHOUD PASS  PTSUNNY   27  18  69 W18G25    30.19R WCI  13
COTTONWOOD PAS FAIR      43  32  65 CALM      30.14R
GUNNISON       FAIR      40  37  89 N3        30.08R
KREMMLING      FAIR      41  37  87 CALM      30.04S
LEADVILLE      FAIR      33  32  96 S3        30.12R
MONARCH PASS     N/A     32  30  93 SW13      30.32R WCI  22
SALIDA         FAIR      47  37  70 W5        30.15R
SUNLIGHT       FAIR      32  30  93 S10G16    30.15S WCI  24
WILKERSON PASS FAIR      32  28  86 W6        30.21R WCI  26
$$

COZ069>075-261400-
...SAN LUIS VALLEY/SANGRE DE CRISTO MOUNTAINS...

CITY           SKY/WX    TMP DP  RH WIND       PRES   REMARKS
ALAMOSA        FAIR      43  34  70 CALM      30.07R
DEL NORTE      FAIR      40  31  70 W12       30.08S
LA VETA PASS   FAIR      39  28  65 SW13G24   30.28R
SAGUACHE       FAIR      43  34  70 NW9       30.08S
$$

COZ035-036-038>040-261400-
...NORTHERN COLORADO FRONT RANGE...

CITY           SKY/WX    TMP DP  RH WIND       PRES   REMARKS
DENVER INTL AP PTSUNNY   48  41  76 NE7       30.00R
DMNS CITY PARK   N/A     50  47  90 E9        30.00R
AURORA         PTSUNNY   46  46 100 CALM      30.01R
FRONT RANGE AP PTSUNNY   48  46  93 N10G18    30.01R
ERIE MUNI ARPT CLOUDY    47  46  94 N3        30.00R
BOULDER MUN AP CLOUDY    46  43  87 CALM      30.00S
CENTENNIAL     FAIR      47  45  93 CALM      30.01R
BROOMFIELD     PTSUNNY   48  46  93 N3        30.01R
FORT COLLINS   PTSUNNY   48  38  68 CALM      30.00S
LONGMONT       CLOUDY    50  44  79 N3        30.01S
$$

COZ041-046-047-076>085-087-088-261400-
...PIKES PEAK/PALMER DIVIDE AND SOUTHERN FOOTHILLS...

CITY           SKY/WX    TMP DP  RH WIND       PRES   REMARKS
COLO. SPRINGS  FAIR      48  44  86 CALM      30.02R
A. F. ACADEMY  CLOUDY    44  43  94 CALM      30.01R
SCHRIEVER AFB  FAIR      49  43  79 CALM      30.01R
CHEYENNE MTN   FAIR      47  44  88 CALM      29.98R
ELLICOTT       FAIR     N/A N/A N/A CALM      30.00R
FALCON         FAIR      48  43  83 S8        30.04S
FORT CARSON    FAIR      50  44  79 CALM      30.00R
LIMON          FAIR      47  47 100 NW9       29.99R
MONUMENT HILL  FAIR      43  41  93 SE5       30.06R
CANON CITY     NOT AVBL
WALSENBURG     FAIR      52  46  82 MISG      30.02S
TRINIDAD       FAIR      48  42  80 W7        30.02S
$$

COZ042>045-048>051-090-091-261400-
...NORTHEAST COLORADO...

CITY           SKY/WX    TMP DP  RH WIND       PRES   REMARKS
GREELEY ARPT   FAIR      47  40  76 NW5       30.00S
AKRON          FAIR      48  42  80 N7        29.98R
BURLINGTON     FAIR      54  50  86 N15       29.94R
WRAY           FAIR      52  45  76 N8        29.95R
YUMA           FAIR      46  41  81 NW7       29.96R
STERLING       FAIR      45  43  93 W3        29.96R
HOLYOKE        NOT AVBL
FORT MORGAN    FAIR      47  39  74 CALM      30.00R
$$

COZ086-089-092>099-261400-
...SOUTHEAST COLORADO...

CITY           SKY/WX    TMP DP  RH WIND       PRES   REMARKS
PUEBLO         FAIR      53  46  77 CALM      29.97S
LA JUNTA       FAIR      55  47  74 W13       29.96R
LAMAR          FAIR      58  47  66 W6        29.91R
SPRINGFIELD      N/A     54  48  80 N12       29.93S
$$




USA.gov is the U.S. government's official web portal to all federal, state and local government web resources and services.